K9MWM-1 Weather Reports


Display with metric or nautical units.
time (UTC)temp
F
wind
direction
speed
MPH
gust
MPH
rain 1hr
in
rain 24hr
in
rain mn
in
humidity
%
barometer
mb
20260510103107 39 58 0.0 0.0 0.00 0.00 0.00
20260510102555 39 95 0.0 0.0 0.00 0.00 0.00
20260510102041 39 337 0.0 0.0 0.00 0.00 0.00
20260510101529 39 337 0.0 0.0 0.00 0.00 0.00
20260510101016 40 337 0.0 0.0 0.00 0.00 0.00
20260510100503 40 326 0.0 0.0 0.00 0.00 0.00
20260510095950 40 337 0.0 0.0 0.00 0.00 0.00
20260510095437 40 337 0.0 0.0 0.00 0.00 0.00
20260510094924 40 292 0.0 0.0 0.00 0.00 0.00
20260510094412 41 25 0.0 0.0 0.00 0.00 0.00
20260510093859 41 337 0.0 0.0 0.00 0.00 0.00
20260510093346 41 225 0.0 0.0 0.00 0.00 0.00
20260510092833 41 150 0.0 0.0 0.00 0.00 0.00
20260510092320 42 337 0.0 0.0 0.00 0.00 0.00
20260510091807 42 90 0.0 0.0 0.00 0.00 0.00
20260510091254 42 25 0.0 0.0 0.00 0.00 0.00
20260510090742 42 157 0.0 0.0 0.00 0.00 0.00
20260510090229 42 45 0.0 0.0 0.00 0.00 0.00
20260510085716 42 191 0.0 0.0 0.00 0.00 0.00
20260510085203 43 67 0.0 0.0 0.00 0.00 0.00
20260510084650 43 45 0.0 0.0 0.00 0.00 0.00
20260510084138 43 292 0.0 0.0 0.00 0.00 0.00
20260510083625 42 97 0.0 0.0 0.00 0.00 0.00
20260510083114 42 323 0.0 0.0 0.00 0.00 0.00
20260510082559 43 337 0.0 0.0 0.00 0.00 0.00
20260510082046 43 337 0.0 0.0 0.00 0.00 0.00
20260510081533 44 348 0.0 0.0 0.00 0.00 0.00
20260510081020 44 315 0.0 0.0 0.00 0.00 0.00
20260510080507 44 112 0.0 0.0 0.00 0.00 0.00
20260510075955 44 191 0.0 0.0 0.00 0.00 0.00
20260510075442 44 131 0.0 0.0 0.00 0.00 0.00
20260510074929 44 337 0.0 0.0 0.00 0.00 0.00
20260510074416 44 337 0.0 0.0 0.00 0.00 0.00
20260510073903 44 180 0.0 0.0 0.00 0.00 0.00
20260510073351 45 275 0.0 0.0 0.00 0.00 0.00
20260510072838 45 247 0.0 0.0 0.00 0.00 0.00
20260510072325 45 337 0.0 0.0 0.00 0.00 0.00
20260510071812 46 103 0.0 0.0 0.00 0.00 0.00
20260510071259 46 337 0.0 0.0 0.00 0.00 0.00
20260510070746 47 123 0.0 0.0 0.00 0.00 0.00
20260510070233 47 337 0.0 0.0 0.00 0.00 0.00
20260510065208 47 337 0.0 0.0 0.00 0.00 0.00
20260510064655 47 91 0.0 0.0 0.00 0.00 0.00
20260510063630 48 286 0.0 0.0 0.00 0.00 0.00
20260510062604 48 337 0.0 0.0 0.00 0.00 0.00
20260510062051 49 292 0.0 0.0 0.00 0.00 0.00
20260510061538 49 340 0.0 0.0 0.00 0.00 0.00
20260510061025 49 315 0.0 0.0 0.00 0.00 0.00
20260510060512 50 256 0.0 0.0 0.00 0.00 0.00
20260510055446 52 103 0.0 0.0 0.00 0.00 0.00
20260510054933 53 133 0.0 0.0 0.00 0.00 0.00
20260510054421 55 350 0.0 0.0 0.00 0.00 0.00
20260510053908 55 22 0.0 0.0 0.00 0.00 0.00
20260510053355 55 180 0.0 0.0 0.00 0.00 0.00
20260510052842 55 270 0.0 0.0 0.00 0.00 0.00
20260510052329 56 247 0.0 0.0 0.00 0.00 0.00
20260510051817 56 333 0.0 0.0 0.00 0.00 0.00
20260510051304 57 247 0.0 0.0 0.00 0.00 0.00
20260510050751 57 337 0.0 0.0 0.00 0.00 0.00
20260510050238 57 211 0.0 7.0 0.00 0.00 0.00
20260510045725 57 45 0.0 0.0 0.00 0.00 0.00
20260510045212 57 337 0.0 0.0 0.00 0.00 0.00
20260510044659 57 135 0.0 0.0 0.00 0.00 0.00
20260510044147 57 337 0.0 3.0 0.00 0.00 0.00
20260510043635 55 315 0.0 13.0 0.00 0.00 0.00
20260510043121 54 168 0.0 0.0 0.00 0.00 0.00
20260510042608 54 0 0.0 0.0 0.00 0.00 0.00
20260510042055 54 127 0.0 4.0 0.00 0.00 0.00
20260510041543 54 155 0.0 0.0 0.00 0.00 0.00
20260510041030 55 127 0.0 0.0 0.00 0.00 0.00
20260510040004 54 332 0.0 0.0 0.00 0.00 0.00
20260510035451 54 135 0.0 0.0 0.00 0.00 0.00
20260510034938 55 39 0.0 0.0 0.00 0.00 0.00
20260510034425 55 337 0.0 0.0 0.00 0.00 0.00
20260510033913 55 67 0.0 0.0 0.00 0.00 0.00
20260510033400 55 337 0.0 0.0 0.00 0.00 0.00
20260510032847 56 337 0.0 0.0 0.00 0.00 0.00
20260510032334 56 174 0.0 0.0 0.00 0.00 0.00
20260510031821 57 331 0.0 0.0 0.00 0.00 0.00
20260510031309 57 217 0.0 0.0 0.00 0.00 0.00
20260510030756 57 337 0.0 0.0 0.00 0.00 0.00
20260510025732 58 315 0.0 0.0 0.00 0.00 0.00
20260510025217 58 90 0.0 0.0 0.00 0.00 0.00
20260510024704 58 157 0.0 0.0 0.00 0.00 0.00
20260510024151 58 67 0.0 0.0 0.00 0.00 0.00
20260510023639 58 337 0.0 0.0 0.00 0.00 0.00
20260510023126 58 337 0.0 0.0 0.00 0.00 0.00
20260510022613 59 315 0.0 0.0 0.00 0.00 0.00
20260510022100 59 157 0.0 0.0 0.00 0.00 0.00
20260510021547 60 337 0.0 0.0 0.00 0.00 0.00
20260510020522 62 60 0.0 0.0 0.00 0.00 0.00
20260510020009 63 112 0.0 0.0 0.00 0.00 0.00
20260510015456 64 348 0.0 0.0 0.00 0.00 0.00
20260510014943 65 337 0.0 0.0 0.00 0.00 0.00
20260510014430 67 337 0.0 0.0 0.00 0.00 0.00
20260510013917 67 1 0.0 0.0 0.00 0.00 0.00
20260510013405 68 334 0.0 0.0 0.00 0.00 0.00
20260510012852 69 112 0.0 0.0 0.00 0.00 0.00
20260510012339 70 342 0.0 0.0 0.00 0.00 0.00
20260510011826 69 319 0.0 2.0 0.00 0.00 0.00
20260510011313 69 331 0.0 0.0 0.00 0.00 0.00
20260510010801 68 333 0.0 3.0 0.00 0.00 0.00
20260510010248 68 323 0.0 5.0 0.00 0.00 0.00
20260510005222 68 343 0.0 0.0 0.00 0.00 0.00
20260510004709 69 337 0.0 0.0 0.00 0.00 0.00
20260510004156 69 349 0.0 0.0 0.00 0.00 0.00
20260510003130 70 349 0.0 0.0 0.00 0.00 0.00
20260510002618 70 322 0.0 4.0 0.00 0.00 0.00
20260510002105 71 320 0.0 4.0 0.00 0.00 0.00
20260510001552 72 323 0.0 5.0 0.00 0.00 0.00
20260510001039 73 317 0.0 5.0 0.00 0.00 0.00
20260510000526 74 322 0.0 5.0 0.00 0.00 0.00
20260510000014 74 342 0.0 3.0 0.00 0.00 0.00
20260509235500 74 324 2.0 4.0 0.00 0.00 0.00
20260509234948 74 329 0.0 5.0 0.00 0.00 0.00
20260509234435 75 341 0.0 6.0 0.00 0.00 0.00
20260509233922 75 327 0.0 0.0 0.00 0.00 0.00
20260509233409 75 315 0.0 0.0 0.00 0.00 0.00
20260509232856 75 327 0.0 0.0 0.00 0.00 0.00
20260509232344 75 326 0.0 0.0 0.00 0.00 0.00
20260509231831 75 311 0.0 11.0 0.00 0.00 0.00
20260509231318 76 324 0.0 1.0 0.00 0.00 0.00
20260509230805 76 325 0.0 5.0 0.00 0.00 0.00
20260509230252 76 320 0.0 6.0 0.00 0.00 0.00
20260509225740 76 315 0.0 7.0 0.00 0.00 0.00
20260509225226 76 316 0.0 4.0 0.00 0.00 0.00
20260509224714 76 311 1.0 4.0 0.00 0.00 0.00
20260509224201 76 328 0.0 0.0 0.00 0.00 0.00
20260509223648 76 318 0.0 5.0 0.00 0.00 0.00
20260509223135 77 339 1.0 2.0 0.00 0.00 0.00
20260509222622 76 235 0.0 0.0 0.00 0.00 0.00
20260509222110 76 315 0.0 0.0 0.00 0.00 0.00
20260509221557 76 187 0.0 0.0 0.00 0.00 0.00
20260509221044 76 331 0.0 0.0 0.00 0.00 0.00
20260509220531 76 350 0.0 4.0 0.00 0.00 0.00
20260509220018 76 309 0.0 0.0 0.00 0.00 0.00
20260509215506 76 334 0.0 1.0 0.00 0.00 0.00
20260509214952 77 327 0.0 1.0 0.00 0.00 0.00
20260509214440 77 142 0.0 0.0 0.00 0.00 0.00
20260509213927 77 332 0.0 1.0 0.00 0.00 0.00
20260509213414 77 350 0.0 0.0 0.00 0.00 0.00
20260509212901 77 324 0.0 0.0 0.00 0.00 0.00
20260509212348 78 328 0.0 4.0 0.00 0.00 0.00
20260509211836 79 297 3.0 8.0 0.00 0.00 0.00
20260509211323 79 316 0.0 9.0 0.00 0.00 0.00
20260509210257 80 315 0.0 2.0 0.00 0.00 0.00
20260509205744 80 326 0.0 7.0 0.00 0.00 0.00
20260509205231 80 318 0.0 8.0 0.00 0.00 0.00
20260509204718 79 3 0.0 4.0 0.00 0.00 0.00
20260509204205 78 310 0.0 6.0 0.00 0.00 0.00
20260509203653 78 319 1.0 3.0 0.00 0.00 0.00
20260509203140 77 321 0.0 16.0 0.00 0.00 0.00
20260509202115 76 347 0.0 8.0 0.00 0.00 0.00
20260509201601 77 319 4.0 10.0 0.00 0.00 0.00
20260509201049 77 330 0.0 5.0 0.00 0.00 0.00
20260509200536 77 325 0.0 1.0 0.00 0.00 0.00
20260509200023 77 327 1.0 5.0 0.00 0.00 0.00
20260509195510 76 322 0.0 7.0 0.00 0.00 0.00
20260509194957 76 316 0.0 9.0 0.00 0.00 0.00
20260509194444 76 323 3.0 15.0 0.00 0.00 0.00
20260509193931 76 325 2.0 5.0 0.00 0.00 0.00
20260509193419 76 316 1.0 7.0 0.00 0.00 0.00
20260509192906 76 303 1.0 13.0 0.00 0.00 0.00
20260509192353 76 348 3.0 4.0 0.00 0.00 0.00
20260509191840 76 316 1.0 6.0 0.00 0.00 0.00
20260509190816 76 321 1.0 5.0 0.00 0.00 0.00
20260509190302 75 319 0.0 6.0 0.00 0.00 0.00
20260509183657 75 340 0.0 7.0 0.00 0.00 0.00
20260509183144 76 317 1.0 8.0 0.00 0.00 0.00
20260509182119 76 328 3.0 5.0 0.00 0.00 0.00
20260509181606 75 328 0.0 3.0 0.00 0.00 0.00
20260509181053 75 326 5.0 8.0 0.00 0.00 0.00
20260509180540 75 323 0.0 0.0 0.00 0.00 0.00
20260509180028 75 330 1.0 5.0 0.00 0.00 0.00
20260509175515 75 328 0.0 6.0 0.00 0.00 0.00
20260509175002 76 299 0.0 3.0 0.00 0.00 0.00
20260509174449 76 292 0.0 4.0 0.00 0.00 0.00
20260509173936 76 323 0.0 6.0 0.00 0.00 0.00
20260509173423 76 327 0.0 6.0 0.00 0.00 0.00
20260509172910 76 320 0.0 9.0 0.00 0.00 0.00
20260509172357 76 329 0.0 6.0 0.00 0.00 0.00
20260509171845 76 316 2.0 6.0 0.00 0.00 0.00
20260509171332 76 315 2.0 6.0 0.00 0.00 0.00
20260509170819 76 320 1.0 4.0 0.00 0.00 0.00
20260509170306 76 325 0.0 1.0 0.00 0.00 0.00
20260509165753 76 324 0.0 6.0 0.00 0.00 0.00
20260509165241 76 335 0.0 3.0 0.00 0.00 0.00
20260509164728 76 321 0.0 2.0 0.00 0.00 0.00
20260509164215 76 11 0.0 0.0 0.00 0.00 0.00
20260509163702 76 337 0.0 0.0 0.00 0.00 0.00
20260509163149 76 326 0.0 0.0 0.00 0.00 0.00
20260509162637 75 247 0.0 0.0 0.00 0.00 0.00
20260509162123 75 342 0.0 0.0 0.00 0.00 0.00
20260509161610 74 256 0.0 0.0 0.00 0.00 0.00
20260509161058 74 138 0.0 0.0 0.00 0.00 0.00
20260509160545 74 135 0.0 0.0 0.00 0.00 0.00
20260509160032 73 9 0.0 0.0 0.00 0.00 0.00
20260509155519 73 356 0.0 0.0 0.00 0.00 0.00
20260509155006 72 320 0.0 0.0 0.00 0.00 0.00
20260509154454 72 221 0.0 0.0 0.00 0.00 0.00
20260509153941 72 150 0.0 0.0 0.00 0.00 0.00
20260509153428 72 337 0.0 0.0 0.00 0.00 0.00
20260509152915 72 144 0.0 0.0 0.00 0.00 0.00
20260509152402 71 22 0.0 0.0 0.00 0.00 0.00
20260509151849 69 357 0.0 0.0 0.00 0.00 0.00
20260509151336 69 183 0.0 0.0 0.00 0.00 0.00
20260509150823 68 343 0.0 0.0 0.00 0.00 0.00
20260509145758 67 337 0.0 0.0 0.00 0.00 0.00
20260509144732 65 149 0.0 0.0 0.00 0.00 0.00
20260509144219 65 129 0.0 0.0 0.00 0.00 0.00
20260509143707 64 152 0.0 0.0 0.00 0.00 0.00
20260509143153 63 154 0.0 0.0 0.00 0.00 0.00
20260509142641 61 147 0.0 0.0 0.00 0.00 0.00
20260509142128 58 128 0.0 0.0 0.00 0.00 0.00
20260509141615 55 115 0.0 0.0 0.00 0.00 0.00
20260509141102 54 337 0.0 0.0 0.00 0.00 0.00
20260509140549 53 337 0.0 0.0 0.00 0.00 0.00
20260509140037 51 93 0.0 0.0 0.00 0.00 0.00
20260509135524 49 337 0.0 0.0 0.00 0.00 0.00
20260509135011 49 161 0.0 0.0 0.00 0.00 0.00
20260509134458 48 247 0.0 0.0 0.00 0.00 0.00
20260509133945 48 77 0.0 0.0 0.00 0.00 0.00
20260509133432 49 337 0.0 0.0 0.00 0.00 0.00
20260509132919 46 0 0.0 0.0 0.00 0.00 0.00
20260509132406 42 337 0.0 0.0 0.00 0.00 0.00
20260509131854 40 337 0.0 0.0 0.00 0.00 0.00
20260509130828 40 112 0.0 0.0 0.00 0.00 0.00
20260509130315 40 337 0.0 0.0 0.00 0.00 0.00
20260509125802 40 337 0.0 0.0 0.00 0.00 0.00
20260509125250 40 337 0.0 0.0 0.00 0.00 0.00
20260509124737 40 270 0.0 0.0 0.00 0.00 0.00
20260509124224 40 337 0.0 0.0 0.00 0.00 0.00
20260509123711 40 337 0.0 0.0 0.00 0.00 0.00
20260509123158 40 0 0.0 0.0 0.00 0.00 0.00
20260509122645 40 131 0.0 0.0 0.00 0.00 0.00
20260509121619 40 337 0.0 0.0 0.00 0.00 0.00
20260509121107 40 33 0.0 0.0 0.00 0.00 0.00
20260509120554 40 337 0.0 0.0 0.00 0.00 0.00
20260509115528 40 337 0.0 0.0 0.00 0.00 0.00
20260509115015 40 337 0.0 0.0 0.00 0.00 0.00
20260509114503 40 337 0.0 0.0 0.00 0.00 0.00
20260509113950 40 337 0.0 0.0 0.00 0.00 0.00
20260509113437 41 90 0.0 0.0 0.00 0.00 0.00
20260509112924 41 337 0.0 0.0 0.00 0.00 0.00
20260509112411 41 0 0.0 0.0 0.00 0.00 0.00
20260509111858 41 337 0.0 0.0 0.00 0.00 0.00
20260509111345 41 135 0.0 0.0 0.00 0.00 0.00
20260509110832 42 337 0.0 0.0 0.00 0.00 0.00
20260509110320 42 103 0.0 0.0 0.00 0.00 0.00
20260509105807 42 85 0.0 0.0 0.00 0.00 0.00
20260509104741 41 303 0.0 0.0 0.00 0.00 0.00
20260509104228 41 151 0.0 0.0 0.00 0.00 0.00
20260509103716 42 60 0.0 0.0 0.00 0.00 0.00
20260509103203 42 90 0.0 0.0 0.00 0.00 0.00